GW3862 Weather Reports


time (UTC)temp
C
wind
direction
speed
KPH
gust
KPH
rain 1hr
cm
rain 24hr
cm
rain mn
cm
humidity
%
barometer
mb
20260504110513 6 240 4.8 14.5 0.00 0.00 0.00 64 1014.1
20260504100516 7 261 8.0 12.9 0.00 0.00 0.00 63 1014.4
20260504081537 9 306 19.3 30.6 0.00 0.00 0.00 52 1013.2
20260504081018 9 302 16.1 30.6 0.00 0.00 0.00 52 1013.1
20260504080519 9 322 20.9 32.2 0.00 0.00 0.00 51 1013.1
20260504080340 9 327 19.3 32.2 0.00 0.00 0.00 51 1013.0
20260504070107 10 326 22.5 32.2 0.00 0.00 0.00 42 1011.3
20260504050516 13 318 29.0 45.1 0.00 0.00 0.00 40 1007.9
20260504045515 13 321 14.5 22.5 0.00 0.05 0.00 40 1007.8
20260504045019 13 332 12.9 22.5 0.00 0.05 0.00 40 1007.6
20260504044551 13 319 14.5 20.9 0.00 0.05 0.00 39 1007.5
20260504044015 13 327 11.3 17.7 0.00 0.05 0.00 39 1007.5
20260504043518 13 325 9.7 16.1 0.00 0.05 0.00 39 1007.5
20260504043051 13 299 6.4 16.1 0.00 0.05 0.00 38 1007.3
20260504042517 13 317 11.3 19.3 0.00 0.05 0.00 38 1007.3
20260504042016 14 342 11.3 20.9 0.00 0.05 0.00 37 1007.0
20260504041551 14 327 11.3 24.1 0.00 0.05 0.00 37 1007.1
20260504041017 15 325 12.9 27.4 0.00 0.05 0.00 36 1007.0
20260504040521 15 333 16.1 27.4 0.00 0.05 0.00 35 1006.8
20260504035522 15 316 14.5 25.7 0.00 0.05 0.00 34 1006.6
20260504035019 15 325 14.5 29.0 0.00 0.05 0.00 33 1006.5
20260504034600 15 322 17.7 29.0 0.00 0.05 0.00 33 1006.5
20260504034021 15 317 16.1 25.7 0.00 0.05 0.00 32 1006.4
20260504033512 15 321 12.9 22.5 0.00 0.05 0.00 32 1006.2
20260504033053 15 320 11.3 16.1 0.00 0.05 0.00 32 1006.0
20260504032519 15 328 6.4 17.7 0.00 0.05 0.00 32 1005.9
20260504032018 15 302 11.3 19.3 0.00 0.05 0.00 31 1005.9
20260504031600 15 306 9.7 19.3 0.00 0.05 0.00 30 1005.8
20260504031019 15 331 0.0 3.2 0.00 0.05 0.00 29 1005.7
20260504030519 15 328 0.0 3.2 0.00 0.05 0.00 29 1005.6
20260504030101 15 328 0.0 4.8 0.00 0.05 0.00 29 1005.5
20260504025514 15 345 1.6 4.8 0.00 0.05 0.00 29 1005.5
20260504025019 15 330 0.0 3.2 0.00 0.05 0.00 29 1005.6
20260504024555 15 333 0.0 1.6 0.00 0.05 0.00 29 1005.8
20260504024017 15 333 0.0 1.6 0.00 0.05 0.00 28 1005.6
20260504023512 16 333 0.0 4.8 0.00 0.05 0.00 28 1005.7
20260504023059 16 333 1.6 4.8 0.00 0.05 0.00 27 1005.6
20260504022516 17 331 1.6 6.4 0.00 0.05 0.00 26 1005.4
20260504022017 17 339 1.6 9.7 0.00 0.05 0.00 26 1005.6
20260504021555 18 325 4.8 9.7 0.00 0.05 0.00 26 1005.7
20260504021019 18 309 4.8 16.1 0.00 0.05 0.00 25 1005.7
20260504020516 19 309 6.4 16.1 0.00 0.05 0.00 24 1005.6
20260504020050 20 311 8.0 20.9 0.00 0.05 0.00 23 1005.3
20260504015516 20 325 11.3 20.9 0.00 0.05 0.00 23 1005.4
20260504015016 20 281 12.9 20.9 0.00 0.05 0.00 22 1005.6
20260504014552 21 307 14.5 20.9 0.00 0.05 0.00 21 1005.5
20260504014018 21 300 11.3 24.1 0.00 0.05 0.00 22 1005.5
20260504013517 21 296 14.5 22.5 0.00 0.05 0.00 21 1005.6
20260504013107 21 283 14.5 24.1 0.00 0.05 0.00 21 1005.5
20260504012517 21 275 14.5 24.1 0.00 0.05 0.00 20 1005.4
20260504012010 22 318 12.9 24.1 0.00 0.05 0.00 20 1005.4
20260504011545 22 280 9.7 19.3 0.00 0.05 0.00 20 1005.6
20260504011016 22 298 11.3 20.9 0.00 0.05 0.00 20 1005.7
20260504010517 22 305 11.3 19.3 0.00 0.05 0.00 19 1005.7
20260504010050 22 275 11.3 20.9 0.00 0.05 0.00 19 1005.8
20260504005516 22 253 9.7 22.5 0.00 0.05 0.00 19 1005.9
20260504005015 23 270 14.5 22.5 0.00 0.05 0.00 18 1006.0
20260504004600 23 231 9.7 16.1 0.00 0.05 0.00 18 1005.9
20260504004016 23 237 4.8 16.1 0.00 0.05 0.00 21 1006.1
20260504003516 23 227 11.3 20.9 0.00 0.05 0.00 19 1006.1
20260504003049 23 250 16.1 20.9 0.00 0.05 0.00 17 1006.2
20260504002513 23 265 12.9 20.9 0.00 0.05 0.00 19 1006.1
20260504002014 23 216 12.9 25.7 0.00 0.05 0.00 18 1006.0
20260504001549 23 250 17.7 25.7 0.00 0.05 0.00 18 1006.2
20260504001020 23 254 8.0 19.3 0.00 0.05 0.00 18 1006.1
20260504000527 23 210 9.7 27.4 0.00 0.05 0.00 19 1006.2
20260504000055 23 213 14.5 27.4 0.00 0.05 0.00 18 1006.3
20260503235509 23 259 14.5 24.1 0.00 0.05 0.00 19 1006.4
20260503235039 23 270 16.1 25.7 0.00 0.05 0.00 19 1006.5
20260503234553 23 275 17.7 33.8 0.00 0.05 0.00 18 1006.5
20260503234015 23 286 19.3 33.8 0.00 0.05 0.00 18 1006.5
20260503233513 23 209 19.3 27.4 0.00 0.05 0.00 17 1006.4
20260503233051 23 246 14.5 29.0 0.00 0.05 0.00 18 1006.6
20260503232511 23 197 16.1 30.6 0.00 0.05 0.00 17 1006.5
20260503232027 23 248 9.7 27.4 0.00 0.05 0.00 18 1006.6
20260503231603 23 213 14.5 32.2 0.00 0.05 0.00 18 1006.6
20260503231021 23 259 17.7 32.2 0.00 0.05 0.00 18 1006.6
20260503230517 23 259 16.1 30.6 0.00 0.05 0.00 19 1006.6
20260503230059 23 246 12.9 22.5 0.00 0.05 0.00 17 1006.6
20260503225520 23 270 12.9 29.0 0.00 0.05 0.00 20 1006.6
20260503225017 23 230 16.1 29.0 0.00 0.05 0.00 18 1006.8
20260503224555 23 256 9.7 20.9 0.00 0.05 0.00 19 1006.9
20260503224028 22 199 14.5 30.6 0.00 0.05 0.00 18 1006.9
20260503223519 23 219 19.3 30.6 0.00 0.05 0.00 18 1007.0
20260503223047 23 225 14.5 30.6 0.00 0.05 0.00 19 1007.1
20260503222514 23 270 14.5 29.0 0.00 0.05 0.00 19 1007.1
20260503222015 23 229 19.3 32.2 0.00 0.05 0.00 18 1007.1
20260503221552 23 248 20.9 32.2 0.00 0.05 0.00 19 1007.3
20260503221013 22 198 11.3 30.6 0.00 0.05 0.00 18 1007.4
20260503220518 22 211 14.5 30.6 0.00 0.05 0.00 18 1007.4
20260503215516 23 250 22.5 30.6 0.00 0.05 0.00 18 1007.5
20260503215016 22 234 12.9 33.8 0.00 0.05 0.00 18 1007.6
20260503214543 22 199 22.5 33.8 0.00 0.05 0.00 17 1007.6
20260503214015 23 233 12.9 32.2 0.00 0.05 0.00 19 1007.7
20260503213519 23 220 22.5 43.5 0.00 0.05 0.00 19 1007.8
20260503213054 22 208 27.4 43.5 0.00 0.05 0.00 18 1007.9
20260503212514 22 183 17.7 33.8 0.00 0.05 0.00 19 1007.9
20260503212017 22 207 19.3 32.2 0.00 0.05 0.00 19 1008.0
20260503211600 22 238 12.9 30.6 0.00 0.05 0.00 18 1008.0
20260503211016 22 200 20.9 32.2 0.00 0.05 0.00 19 1008.2
20260503210516 22 265 11.3 38.6 0.00 0.05 0.00 20 1008.2
20260503210048 22 230 22.5 38.6 0.00 0.05 0.00 17 1008.5
20260503205524 22 177 17.7 38.6 0.00 0.05 0.00 19 1008.4
20260503205016 22 196 24.1 38.6 0.00 0.05 0.00 18 1008.5
20260503204554 22 235 17.7 37.0 0.00 0.05 0.00 19 1008.7
20260503204017 22 215 19.3 37.0 0.00 0.05 0.00 19 1008.8
20260503203515 22 220 9.7 22.5 0.00 0.05 0.00 20 1008.6
20260503203054 22 212 12.9 40.2 0.00 0.05 0.00 21 1008.9
20260503202520 22 243 17.7 40.2 0.00 0.05 0.00 20 1008.9
20260503202017 22 217 16.1 30.6 0.00 0.05 0.00 21 1009.0
20260503201555 22 203 20.9 32.2 0.00 0.05 0.00 21 1009.0
20260503201017 22 218 16.1 35.4 0.00 0.05 0.00 20 1009.0
20260503200514 22 194 19.3 38.6 0.00 0.05 0.00 20 1009.0
20260503200058 22 204 20.9 33.8 0.00 0.05 0.00 21 1009.1
20260503195521 22 204 24.1 33.8 0.00 0.05 0.00 21 1009.2
20260503195021 21 220 9.7 33.8 0.00 0.05 0.00 25 1009.1
20260503194557 21 177 17.7 37.0 0.00 0.05 0.00 22 1009.5
20260503194023 21 204 24.1 38.6 0.00 0.05 0.00 23 1009.3
20260503193524 21 208 19.3 40.2 0.00 0.05 0.00 24 1009.4
20260503193057 22 148 19.3 32.2 0.00 0.05 0.00 23 1009.6
20260503192522 22 200 20.9 27.4 0.00 0.05 0.00 22 1009.7
20260503192025 22 241 11.3 27.4 0.00 0.05 0.00 26 1009.6
20260503191830 21 173 12.9 32.2 0.00 0.05 0.00 24 1009.5
20260503191023 21 175 17.7 32.2 0.00 0.05 0.00 24 1009.7
20260503190517 21 208 17.7 27.4 0.00 0.05 0.00 24 1009.8
20260503190058 21 246 11.3 32.2 0.00 0.05 0.00 27 1010.0
20260503185518 21 147 12.9 33.8 0.00 0.05 0.00 25 1010.2
20260503185016 21 199 16.1 33.8 0.00 0.05 0.00 25 1010.2
20260503184607 21 226 14.5 33.8 0.00 0.05 0.00 26 1010.3
20260503184018 21 177 25.7 33.8 0.00 0.05 0.00 24 1010.4
20260503183520 20 201 6.4 27.4 0.00 0.05 0.00 26 1010.3
20260503183050 21 212 19.3 32.2 0.00 0.05 0.00 24 1010.7
20260503182527 21 208 22.5 32.2 0.00 0.05 0.00 24 1010.6
20260503182017 21 242 16.1 30.6 0.00 0.05 0.00 27 1010.6
20260503181539 20 221 24.1 30.6 0.00 0.05 0.00 25 1010.5
20260503181014 20 202 17.7 30.6 0.00 0.05 0.00 25 1010.6
20260503180514 20 214 16.1 30.6 0.00 0.05 0.00 27 1010.6
20260503180040 20 210 12.9 24.1 0.00 0.05 0.00 28 1010.8
20260503175512 20 220 17.7 22.5 0.00 0.05 0.00 27 1010.9
20260503175018 19 223 11.3 25.7 0.00 0.05 0.00 30 1010.7
20260503174558 18 245 11.3 22.5 0.00 0.05 0.00 29 1010.7
20260503174013 19 229 11.3 27.4 0.00 0.05 0.00 31 1011.0
20260503173513 19 238 16.1 27.4 0.00 0.05 0.00 30 1011.0
20260503173040 20 248 17.7 25.7 0.00 0.05 0.00 30 1011.1
20260503172514 19 208 14.5 25.7 0.00 0.05 0.00 32 1011.0
20260503172015 19 204 19.3 29.0 0.00 0.05 0.00 32 1010.9
20260503171545 19 223 19.3 29.0 0.00 0.05 0.00 32 1010.8
20260503171016 19 223 19.3 27.4 0.00 0.05 0.00 31 1010.8
20260503170514 18 219 14.5 22.5 0.00 0.05 0.00 34 1011.0
20260503160120 16 209 16.1 20.9 0.00 0.05 0.00 51 1011.5
20260503150514 13 199 14.5 20.9 0.00 0.05 0.00 63 1011.8
20260503131015 7 115 4.8 8.0 0.00 0.05 0.00 78 1011.9
20260503130516 7 105 4.8 8.0 0.00 0.05 0.00 78 1011.9